STARLINK-30564, 58043

Orbit data source: Space-Track

STARLINK-30564, 58043 is a payload satellite owned by SpaceX/Seattle (US) in LEO that was launched on Mon, 09 Oct 2023 UTC via an FALCON 9 launch vehicle from the Air Force Western Test Range (AFWTR). Payload-class satellites include a variety of spacecraft equipped with specific instruments for various scientific and technological missions. These include communications satellites like Starlink; space stations such as the ISS; scientific satellites like the Hubble; Earth observation satellites from companies like Planet Labs, Umbra, and HawkEye 360; GPS; miniature CubeSats for education and research; and military/defense satellites.

Loading next visibility...
Identifier
58043, 2023-156R
Orbit
LEO
Country
Flag of USUS
Related business
Manufacturer
SpaceX/Seattle
Mission
Operational Commercial Communications
Bus & Motor
STARLINK V2M, Unknown motor
Mass
730 kg wet, ~700 kg dry
Launch date (UTC)
2023-10-09 (2 years ago)
Launch vehicle
FALCON 9
Launch site
Air Force Western Test Range (AFWTR)
Object type
Payload
Rocket body
Debris
Shape & HBR
Box + 2 Pan, 17.7 m
Radar Cross Section
33.884 m², Large (>1 m²)

Expand to show TLE details & history
Last TLE update: 21 hours ago

TLE from 21 hours ago
0 STARLINK-30564
1 58043U 23156R   25348.72632469  .00009950  00000-0  34773-3 0  9998
2 58043  53.1577 113.1350 0001546  48.6453 311.4680 15.30190413123309
Epoch: 2025-12-14T17:25Z
TLE epoch observation values (Epoch: 2025-12-14T17:25:54.453Z)
Latitude
-0.00005°
Longitude
128.02297°
Altitude
475.442 km
Speed
7.63 km/s
True Right ascension
07h 32m 32s
True Declination
0° 00' 00"
Sunlit
Object was in full shadow at epoch
Visualization orbit readout
Latitude
Unknown
Longitude
Unknown
Altitude
Unknown
Speed
Unknown
Apparent Right ascension
Unknown
Apparent Declination
Unknown
Sunlit
N/A
Visualization observer readout
Local Sidereal Time
13:19:57
Azimuth
Unknown
Elevation
Unknown
Doppler factor
Unknown
Orbital elements
Apogee altitude
476.56 km
Perigee altitude
474.441 km
Semi-major axis
6,853.637 km
Eccentricity
0.00015
Inclination
53.1577°
RAAN
113.135°
Arg. of periapsis
48.6453°
True anomaly
311.45472°
Mean anomaly
311.468°
Eccentric anomaly
311.46136°
Mean motion
3.82526 °/min
Orbital period
94.11 mins
BSTAR
0.00034773
Loading maneuver chart data...
Computing Atmospheric mass density...
Loading historical data...
Loading historical data...
Loading historical data...
Loading historical data...
Loading historical data...
Loading historical data...
Loading historical data...

Documentation

Showing up to 5 results
|